User: anonymous   Login
Location: Unspecified
(0.0000°N, 0.0000°E)
Time: 18:04:17
(UTC+00:00)
Language:

EAGLEEYE - Orbit

View from above orbital plane
View from above orbital plane
View from above satellite
View from above satellite

Ground track
Ground track

The orbit is defined by the following mean orbital elements,

1 60508U          26145.52685683 +.00000000 +00000-0 +70372-3 0 00005
2 60508  97.3723 237.6862 0001366 325.3658  34.7514 15.66678842    01
Epoch (UTC): 25 May 2026 12:38:40
Eccentricity: 0.0001366
inclination: 97.3723°
perigee height: 367 km
apogee height: 369 km
right ascension of ascending node: 237.6862°
argument of perigee: 325.3658°
revolutions per day: 15.66678842
mean anomaly at epoch: 34.7514°

The dashed part of the orbit path shows where the satellite is in the earth's shadow,  

DLR